Location: Lugrin
(46.4033°N, 6.6674°E)
Time: 11:28:05
(UTC+00:00)

CZ-4 R/B - Pass Details

Date: 18 September 2020
Orbit: 530 x 600 km, 97.7° (Epoch: 25 October)

Event Time Altitude Azimuth Distance (km) Brightness Sun altitude
Rises 18:43:43 0° 190° (S) 2,834 4.9 -12.0°
Reaches altitude 10° 18:46:04 10° 201° (SSW) 1,938 4.2 -12.4°
Maximum altitude 18:49:50 31° 264° (W) 1,065 3.5 -13.0°
Drops below altitude 10° 18:53:36 10° 327° (NNW) 1,943 4.9 -13.6°
Sets 18:55:59 0° 338° (NNW) 2,844 5.6 -14.0°
